Regional Weather Roundup
Issued by NWS New Orleans/Baton Rouge, LA

Home | Current Version | Previous Version | Text Only | Print | Product List | Glossary Off
Versions: 1 2 3 4 5 6 7 8 9 10 11 12 13 14 15 16 17 18 19 20 21 22 23 24 25 26 27 28 29 30 31 32 33 34 35 36 37 38 39 40 41 42 43 44 45 46 47 48 49 50

487
ASUS44 KLIX 231001
RWRLIX
NEW ORLEANS REGIONAL WEATHER ROUNDUP
NATIONAL WEATHER SERVICE NEW ORLEANS LA
500 AM CDT THU OCT 23 2014

NOTE: "FAIR" INDICATES FEW OR NO CLOUDS BELOW 12,000 FEET WITH NO
      SIGNIFICANT WEATHER AND/OR OBSTRUCTIONS TO VISIBILITY.
      SKY/WX - SKY CONDITION AND SIGNIFICANT WEATHER.
      TMP - AIR TEMPERATURE.     DP    - DEWPOINT TEMPERATURE.
      RH  - RELATIVE HUMIDITY.   PRES  - PRESSURE.
      HI  - HEAT INDEX.          WCI   - WIND CHILL INDEX.

*  THESE STATIONS ARE NOT NWS OR FAA STATIONS AND ARE NOT UNDER
   NWS QUALITY CONTROL.

LAZ038-040-048-061>063-065>067-069-231100-
SOUTHEAST LOUISIANA

CITY           SKY/WX    TMP DP  RH WIND       PRES   REMARKS
N.O. AUDUBON     N/A     61  49  64 MISG        N/A
N.O. INTL ARPT CLEAR     63  49  60 E9        30.05S
N.O. LAKEFRONT LGT RAIN  63  50  62 NE18      30.06S
N.O. DOWNTOWN*   N/A     61  45  55 NE6       30.06S
SLIDELL        CLEAR     48  45  89 N3        30.06F
BATON ROUGE    CLEAR     50  47  89 NE5       30.08S
BOOTHVILLE     CLEAR     70  56  61 NE10      30.03S
BELLE CHASSE   CLEAR     59  50  72 NE6       30.05F
BOGALUSA*        N/A     47  44  90 CALM      30.09F
NEW ROADS*       N/A     53  47  81 CALM      30.09R
GONZALES*        N/A     53  51  93 N3        30.07S
HAMMOND*       NOT AVBL
HOUMA*         CLEAR     56  50  81 N7        30.05S
PORT FOURCHON* SUNNY     68  59  73 NE9       30.06S

$$

MSZ070-080>082-231100-
SOUTHERN MISSISSIPPI

CITY           SKY/WX    TMP DP  RH WIND       PRES   REMARKS
MCCOMB         CLEAR     52  45  77 N5        30.09S
GULFPORT       CLEAR     51  44  77 N3        30.07R
BILOXI         CLEAR     52  46  79 NE7       30.07R
PASCAGOULA     CLEAR     45  43  93 N3        30.07S

$$

COASTAL OBSERVATIONS
LAKE AND NEARSHORE STATIONS

STATION/POSITION TIME  TEMP    WIND        PRES    WAVE
                       AIR SEA DIR/SP/G            HT/PER
                 (UTC) (F)     (DEG/KT/KT) (MB)    (FT/S)
PASCAGOULA       0900   55      20/  8/ 11 1017.4
WAVELAND YACHT   0900   58      40/ 11/ 12 1017.3
GRAND ISLE       0900   69 74   50/ 11/ 16 1017.1
SOUTHWEST PASS   0900   71 81              1016.5
NEW CANAL        0900   65 70   70/ 18/ 20 1017.8
SHELL BEACH      0900   66 67   50/ 17/ 18 1017.3

OFFSHORE STATIONS

STATION/POSITION TIME  TEMP    WIND        PRES    WAVE
                       AIR SEA DIR/SP/G            HT/PER
                 (UTC) (F)     (DEG/KT/KT) (MB)    (FT/S)
64 S DAUPHIN ISL 0935   72 78   50/ 16/ 19 1016.7    5/ 6

$$




USA.gov is the U.S. government's official web portal to all federal, state and local government web resources and services.